| time (UTC) | temp F | wind direction | speed MPH | gust MPH | rain 1hr in | rain 24hr in | rain mn in | humidity % | barometer mb |
| 20260510002059 | 45 | 284 | 1.0 | 2.0 | 0.08 | 0.47 | 0.47 | 99 | 1013.0 |
| 20260510001039 | 45 | 4 | 1.0 | 2.0 | 0.06 | 0.46 | 0.46 | 99 | 1012.9 |
| 20260510000019 | 45 | 12 | 1.0 | 4.0 | 0.06 | 0.44 | 0.44 | 99 | 1013.0 |
| 20260509235016 | 45 | 65 | 1.0 | 3.0 | 0.04 | 0.42 | 0.42 | 99 | 1013.0 |
| 20260509234016 | 45 | 58 | 1.0 | 3.0 | 0.03 | 0.41 | 0.41 | 99 | 1013.0 |
| 20260509233020 | 45 | 333 | 1.0 | 2.0 | 0.02 | 0.40 | 0.40 | 99 | 1013.0 |
| 20260509232020 | 45 | 31 | 1.0 | 2.0 | 0.03 | 0.39 | 0.39 | 99 | 1013.0 |
| 20260509231040 | 45 | 64 | 1.0 | 3.0 | 0.04 | 0.39 | 0.39 | 99 | 1012.9 |
| 20260509230017 | 45 | 96 | 0.0 | 2.0 | 0.05 | 0.39 | 0.39 | 99 | 1012.9 |
| 20260509225017 | 45 | 100 | 1.0 | 2.0 | 0.04 | 0.38 | 0.38 | 100 | 1013.0 |
| 20260509224017 | 45 | 112 | 1.0 | 2.0 | 0.04 | 0.38 | 0.38 | 100 | 1013.0 |
| 20260509223017 | 45 | 89 | 1.0 | 3.0 | 0.04 | 0.38 | 0.38 | 100 | 1013.0 |
| 20260509222040 | 45 | 105 | 1.0 | 4.0 | 0.03 | 0.36 | 0.36 | 100 | 1013.1 |
| 20260509221018 | 45 | 118 | 1.0 | 3.0 | 0.01 | 0.35 | 0.35 | 99 | 1013.2 |
| 20260509220018 | 45 | 96 | 1.0 | 2.0 | 0.01 | 0.34 | 0.34 | 99 | 1013.2 |
| 20260509215018 | 45 | 99 | 1.0 | 3.0 | 0.02 | 0.34 | 0.34 | 99 | 1013.3 |
| 20260509214018 | 45 | 95 | 1.0 | 2.0 | 0.02 | 0.34 | 0.34 | 99 | 1013.6 |
| 20260509213018 | 45 | 123 | 1.0 | 2.0 | 0.01 | 0.34 | 0.34 | 99 | 1013.7 |
| 20260509212019 | 45 | 133 | 1.0 | 2.0 | 0.01 | 0.33 | 0.33 | 99 | 1014.0 |
| 20260509211018 | 45 | 117 | 1.0 | 3.0 | 0.01 | 0.33 | 0.33 | 99 | 1014.1 |
| 20260509210059 | 45 | 101 | 0.0 | 2.0 | 0.00 | 0.33 | 0.33 | 99 | 1014.0 |
| 20260509205039 | 46 | 104 | 1.0 | 3.0 | 0.00 | 0.32 | 0.32 | 98 | 1014.1 |
| 20260509204019 | 46 | 36 | 1.0 | 3.0 | 0.00 | 0.32 | 0.32 | 99 | 1014.2 |
| 20260509203020 | 46 | 328 | 1.0 | 4.0 | 0.00 | 0.32 | 0.32 | 99 | 1013.8 |
| 20260509202017 | 46 | 2 | 2.0 | 4.0 | 0.00 | 0.32 | 0.32 | 99 | 1013.6 |
| 20260509201017 | 46 | 325 | 2.0 | 4.0 | 0.01 | 0.32 | 0.32 | 99 | 1014.0 |
| 20260509200017 | 46 | 11 | 2.0 | 4.0 | 0.02 | 0.32 | 0.32 | 99 | 1013.5 |
| 20260509195020 | 46 | 18 | 1.0 | 3.0 | 0.02 | 0.32 | 0.32 | 99 | 1013.9 |
| 20260509194040 | 46 | 36 | 1.0 | 3.0 | 0.03 | 0.32 | 0.32 | 98 | 1014.5 |
| 20260509193018 | 46 | 11 | 0.0 | 3.0 | 0.04 | 0.32 | 0.32 | 98 | 1014.7 |
| 20260509192018 | 46 | 136 | 0.0 | 2.0 | 0.05 | 0.32 | 0.32 | 98 | 1014.8 |
| 20260509191017 | 46 | 221 | 0.0 | 3.0 | 0.06 | 0.31 | 0.31 | 98 | 1014.8 |
| 20260509190018 | 46 | 55 | 0.0 | 2.0 | 0.07 | 0.31 | 0.31 | 97 | 1014.8 |
| 20260509185018 | 46 | 98 | 0.0 | 2.0 | 0.09 | 0.30 | 0.30 | 97 | 1014.9 |
| 20260509184038 | 46 | 279 | 1.0 | 3.0 | 0.10 | 0.29 | 0.29 | 97 | 1014.9 |
| 20260509183018 | 45 | 250 | 0.0 | 2.0 | 0.12 | 0.29 | 0.29 | 96 | 1015.3 |
| 20260509182019 | 45 | 221 | 1.0 | 2.0 | 0.13 | 0.27 | 0.27 | 96 | 1015.3 |
| 20260509181018 | 46 | 236 | 1.0 | 2.0 | 0.13 | 0.26 | 0.26 | 96 | 1015.1 |
| 20260509180019 | 46 | 221 | 1.0 | 4.0 | 0.13 | 0.24 | 0.24 | 96 | 1015.3 |
| 20260509175019 | 46 | 287 | 1.0 | 3.0 | 0.12 | 0.21 | 0.21 | 96 | 1015.4 |
| 20260509174019 | 47 | 302 | 1.0 | 3.0 | 0.12 | 0.19 | 0.19 | 95 | 1015.4 |
| 20260509173017 | 46 | 252 | 1.0 | 4.0 | 0.11 | 0.16 | 0.16 | 95 | 1015.2 |
| 20260509172016 | 47 | 343 | 0.0 | 2.0 | 0.11 | 0.14 | 0.14 | 94 | 1015.0 |
| 20260509171019 | 47 | 320 | 1.0 | 2.0 | 0.10 | 0.12 | 0.12 | 93 | 1015.3 |
| 20260509170020 | 47 | 288 | 1.0 | 2.0 | 0.09 | 0.10 | 0.10 | 92 | 1015.3 |
| 20260509165017 | 47 | 238 | 1.0 | 3.0 | 0.08 | 0.09 | 0.09 | 90 | 1015.3 |
| 20260509164017 | 47 | 239 | 1.0 | 4.0 | 0.07 | 0.07 | 0.07 | 89 | 1015.3 |
| 20260509163017 | 47 | 248 | 1.0 | 3.0 | 0.05 | 0.05 | 0.05 | 88 | 1015.4 |
| 20260509162018 | 48 | 232 | 2.0 | 5.0 | 0.03 | 0.03 | 0.03 | 87 | 1015.5 |
| 20260509161018 | 48 | 261 | 1.0 | 6.0 | 0.02 | 0.02 | 0.02 | 87 | 1015.7 |
| 20260509160018 | 48 | 233 | 1.0 | 6.0 | 0.01 | 0.01 | 0.01 | 86 | 1015.7 |
| 20260509155017 | 48 | 238 | 1.0 | 5.0 | 0.01 | 0.01 | 0.01 | 85 | 1015.8 |
| 20260509154018 | 48 | 233 | 1.0 | 6.0 | 0.00 | 0.00 | 0.00 | 81 | 1015.8 |
| 20260509153019 | 49 | 226 | 1.0 | 4.0 | 0.00 | 0.00 | 0.00 | 78 | 1015.7 |
| 20260509152018 | 49 | 236 | 1.0 | 5.0 | 0.00 | 0.00 | 0.00 | 74 | 1015.6 |
| 20260509151019 | 49 | 220 | 1.0 | 5.0 | 0.00 | 0.00 | 0.00 | 74 | 1015.5 |
| 20260509150039 | 49 | 240 | 1.0 | 3.0 | 0.00 | 0.00 | 0.00 | 77 | 1015.4 |
| 20260509145019 | 50 | 253 | 1.0 | 5.0 | 0.00 | 0.00 | 0.00 | 76 | 1015.3 |
| 20260509144019 | 51 | 268 | 1.0 | 4.0 | 0.00 | 0.00 | 0.00 | 71 | 1015.2 |
| 20260509143019 | 52 | 228 | 1.0 | 5.0 | 0.00 | 0.00 | 0.00 | 68 | 1015.0 |
| 20260509142020 | 52 | 238 | 1.0 | 4.0 | 0.00 | 0.00 | 0.00 | 64 | 1015.0 |
| 20260509141059 | 52 | 249 | 1.0 | 3.0 | 0.00 | 0.00 | 0.00 | 64 | 1015.0 |
| 20260509140016 | 51 | 258 | 1.0 | 3.0 | 0.00 | 0.00 | 0.00 | 64 | 1015.0 |
| 20260509135017 | 50 | 245 | 1.0 | 2.0 | 0.00 | 0.00 | 0.00 | 66 | 1014.9 |
| 20260509134017 | 50 | 254 | 0.0 | 3.0 | 0.00 | 0.00 | 0.00 | 68 | 1015.0 |
| 20260509133140 | 49 | 262 | 0.0 | 3.0 | 0.00 | 0.00 | 0.00 | 71 | 1015.1 |
| 20260509132018 | 49 | 230 | 1.0 | 4.0 | 0.00 | 0.00 | 0.00 | 69 | 1015.2 |
| 20260509131018 | 49 | 221 | 1.0 | 4.0 | 0.00 | 0.00 | 0.00 | 68 | 1015.3 |
| 20260509130018 | 49 | 227 | 1.0 | 4.0 | 0.00 | 0.00 | 0.00 | 66 | 1015.3 |
| 20260509125018 | 48 | 235 | 1.0 | 4.0 | 0.00 | 0.00 | 0.00 | 66 | 1015.3 |
| 20260509124038 | 47 | 231 | 2.0 | 5.0 | 0.00 | 0.00 | 0.00 | 66 | 1015.3 |
| 20260509123018 | 47 | 235 | 2.0 | 5.0 | 0.00 | 0.00 | 0.00 | 67 | 1015.4 |
| 20260509122018 | 46 | 226 | 2.0 | 4.0 | 0.00 | 0.00 | 0.00 | 67 | 1015.3 |
| 20260509121019 | 46 | 217 | 2.0 | 5.0 | 0.00 | 0.00 | 0.00 | 70 | 1015.3 |
| 20260509120019 | 46 | 224 | 2.0 | 3.0 | 0.00 | 0.00 | 0.00 | 70 | 1015.2 |
| 20260509115019 | 45 | 225 | 2.0 | 4.0 | 0.00 | 0.00 | 0.00 | 70 | 1015.3 |
| 20260509114039 | 44 | 259 | 1.0 | 3.0 | 0.00 | 0.00 | 0.00 | 73 | 1015.1 |
| 20260509113020 | 43 | 271 | 0.0 | 1.0 | 0.00 | 0.00 | 0.00 | 76 | 1015.0 |
| 20260509112016 | 41 | 233 | 1.0 | 2.0 | 0.00 | 0.00 | 0.00 | 83 | 1015.2 |
| 20260509111016 | 39 | 289 | 1.0 | 2.0 | 0.00 | 0.00 | 0.00 | 87 | 1015.2 |
| 20260509110016 | 38 | 329 | 0.0 | 1.0 | 0.00 | 0.00 | 0.00 | 91 | 1015.0 |
| 20260509105020 | 36 | 356 | 0.0 | 1.0 | 0.00 | 0.00 | 0.00 | 93 | 1014.9 |
| 20260509104020 | 35 | 21 | 0.0 | 1.0 | 0.00 | 0.00 | 0.00 | 95 | 1014.8 |
| 20260509103040 | 34 | 352 | 0.0 | 1.0 | 0.00 | 0.00 | 0.00 | 96 | 1014.6 |
| 20260509102017 | 33 | 231 | 0.0 | 1.0 | 0.00 | 0.00 | 0.00 | 96 | 1014.4 |
| 20260509101017 | 33 | 193 | 0.0 | 2.0 | 0.00 | 0.00 | 0.00 | 95 | 1014.3 |
| 20260509100017 | 33 | 357 | 0.0 | 1.0 | 0.00 | 0.00 | 0.00 | 95 | 1014.1 |
| 20260509095018 | 33 | 43 | 0.0 | 1.0 | 0.00 | 0.00 | 0.00 | 95 | 1013.9 |
| 20260509094018 | 33 | 258 | 0.0 | 1.0 | 0.00 | 0.00 | 0.00 | 94 | 1013.8 |
| 20260509093018 | 33 | 239 | 0.0 | 1.0 | 0.00 | 0.00 | 0.00 | 94 | 1013.7 |
| 20260509092018 | 33 | 241 | 0.0 | 1.0 | 0.00 | 0.00 | 0.00 | 94 | 1013.6 |
| 20260509091039 | 33 | 305 | 0.0 | 1.0 | 0.00 | 0.00 | 0.00 | 93 | 1013.4 |
| 20260509090018 | 34 | 241 | 0.0 | 1.0 | 0.00 | 0.00 | 0.00 | 93 | 1013.4 |
| 20260509085019 | 34 | 310 | 0.0 | 1.0 | 0.00 | 0.00 | 0.00 | 92 | 1013.2 |
| 20260509084019 | 34 | 23 | 0.0 | 1.0 | 0.00 | 0.00 | 0.00 | 92 | 1013.3 |
| 20260509083016 | 34 | 4 | 0.0 | 1.0 | 0.00 | 0.00 | 0.00 | 91 | 1013.4 |
| 20260509082019 | 35 | 21 | 0.0 | 1.0 | 0.00 | 0.00 | 0.00 | 91 | 1013.4 |
| 20260509081039 | 35 | 10 | 0.0 | 1.0 | 0.00 | 0.00 | 0.00 | 91 | 1013.6 |
| 20260509080019 | 35 | 350 | 0.0 | 1.0 | 0.00 | 0.00 | 0.00 | 91 | 1013.6 |
| 20260509075019 | 35 | 266 | 0.0 | 1.0 | 0.00 | 0.00 | 0.00 | 90 | 1013.6 |
| 20260509074017 | 36 | 339 | 0.0 | 1.0 | 0.00 | 0.00 | 0.00 | 90 | 1013.5 |
| 20260509073017 | 36 | 359 | 0.0 | 1.0 | 0.00 | 0.00 | 0.00 | 90 | 1013.4 |
| 20260509072017 | 37 | 19 | 0.0 | 2.0 | 0.00 | 0.00 | 0.00 | 89 | 1013.4 |
| 20260509071040 | 37 | 11 | 0.0 | 1.0 | 0.00 | 0.00 | 0.00 | 89 | 1013.5 |
| 20260509070020 | 37 | 350 | 0.0 | 1.0 | 0.00 | 0.00 | 0.00 | 89 | 1013.5 |
| 20260509065018 | 38 | 267 | 0.0 | 1.0 | 0.00 | 0.00 | 0.00 | 87 | 1013.4 |
| 20260509064019 | 38 | 250 | 0.0 | 1.0 | 0.00 | 0.00 | 0.00 | 86 | 1013.4 |
| 20260509063018 | 39 | 277 | 0.0 | 1.0 | 0.00 | 0.00 | 0.00 | 86 | 1013.3 |
| 20260509062018 | 39 | 331 | 0.0 | 1.0 | 0.00 | 0.00 | 0.00 | 85 | 1013.3 |
| 20260509061018 | 40 | 289 | 0.0 | 1.0 | 0.00 | 0.00 | 0.00 | 85 | 1013.3 |
| 20260509060038 | 40 | 2 | 0.0 | 2.0 | 0.00 | 0.00 | 0.00 | 84 | 1013.2 |
| 20260509055018 | 41 | 308 | 0.0 | 1.0 | 0.00 | 0.00 | 0.00 | 82 | 1013.2 |
| 20260509054019 | 41 | 279 | 0.0 | 2.0 | 0.00 | 0.00 | 0.00 | 79 | 1013.1 |
| 20260509053018 | 42 | 254 | 0.0 | 3.0 | 0.00 | 0.00 | 0.00 | 79 | 1013.1 |
| 20260509052019 | 43 | 244 | 1.0 | 3.0 | 0.00 | 0.00 | 0.00 | 77 | 1013.1 |
| 20260509051040 | 43 | 219 | 1.0 | 4.0 | 0.00 | 0.00 | 0.00 | 76 | 1013.2 |
| 20260509050037 | 44 | 207 | 0.0 | 1.0 | 0.00 | 0.00 | 0.00 | 75 | 1013.2 |
| 20260509045017 | 44 | 233 | 0.0 | 1.0 | 0.00 | 0.00 | 0.00 | 75 | 1013.2 |
| 20260509044019 | 44 | 166 | 0.0 | 1.0 | 0.00 | 0.00 | 0.00 | 73 | 1013.2 |
| 20260509043019 | 44 | 275 | 0.0 | 1.0 | 0.00 | 0.00 | 0.00 | 74 | 1013.2 |
| 20260509042100 | 44 | 266 | 0.0 | 1.0 | 0.00 | 0.00 | 0.00 | 75 | 1013.1 |
| 20260509041017 | 45 | 254 | 0.0 | 1.0 | 0.00 | 0.00 | 0.00 | 74 | 1013.1 |
| 20260509040037 | 45 | 245 | 0.0 | 0.0 | 0.00 | 0.00 | 0.00 | 74 | 1012.9 |
| 20260509035017 | 45 | 268 | 0.0 | 1.0 | 0.00 | 0.00 | 0.00 | 74 | 1012.8 |
| 20260509034018 | 45 | 250 | 0.0 | 1.0 | 0.00 | 0.00 | 0.00 | 75 | 1012.7 |
| 20260509033018 | 45 | 238 | 0.0 | 1.0 | 0.00 | 0.00 | 0.00 | 70 | 1012.7 |
| 20260509032019 | 45 | 230 | 1.0 | 3.0 | 0.00 | 0.00 | 0.00 | 69 | 1012.5 |
| 20260509031018 | 45 | 245 | 0.0 | 1.0 | 0.00 | 0.00 | 0.00 | 73 | 1012.5 |
| 20260509030019 | 45 | 238 | 1.0 | 1.0 | 0.00 | 0.00 | 0.00 | 75 | 1012.5 |
| 20260509025019 | 45 | 241 | 1.0 | 1.0 | 0.00 | 0.00 | 0.00 | 74 | 1012.3 |
| 20260509024018 | 45 | 227 | 0.0 | 2.0 | 0.00 | 0.00 | 0.00 | 71 | 1012.2 |
| 20260509023039 | 44 | 229 | 0.0 | 1.0 | 0.00 | 0.00 | 0.00 | 69 | 1012.1 |
| 20260509022019 | 44 | 250 | 0.0 | 1.0 | 0.00 | 0.00 | 0.00 | 71 | 1011.9 |
| 20260509021019 | 44 | 262 | 0.0 | 1.0 | 0.00 | 0.00 | 0.00 | 69 | 1011.7 |
| 20260509020019 | 44 | 58 | 0.0 | 1.0 | 0.00 | 0.00 | 0.00 | 73 | 1011.5 |
| 20260509015039 | 44 | 229 | 0.0 | 1.0 | 0.00 | 0.00 | 0.00 | 68 | 1011.4 |
| 20260509014017 | 44 | 246 | 0.0 | 2.0 | 0.00 | 0.00 | 0.00 | 72 | 1011.3 |
| 20260509013016 | 45 | 357 | 0.0 | 1.0 | 0.00 | 0.00 | 0.00 | 70 | 1011.1 |
| 20260509012017 | 45 | 249 | 0.0 | 1.0 | 0.00 | 0.00 | 0.00 | 73 | 1011.0 |
| 20260509011020 | 46 | 317 | 0.0 | 1.0 | 0.00 | 0.00 | 0.00 | 72 | 1010.9 |
| 20260509010020 | 46 | 255 | 0.0 | 1.0 | 0.00 | 0.00 | 0.00 | 60 | 1010.7 |
| 20260509005017 | 47 | 26 | 0.0 | 2.0 | 0.00 | 0.00 | 0.00 | 60 | 1010.5 |
| 20260509004017 | 48 | 344 | 0.0 | 2.0 | 0.00 | 0.00 | 0.00 | 56 | 1010.3 |
| 20260509003018 | 50 | 322 | 0.0 | 2.0 | 0.00 | 0.00 | 0.00 | 54 | 1010.1 |